Lexington Weather

Lexington, Massachusetts, USA

39°F
3/2/2024 8:45am 
  • Lexington Conditions: Mostly cloudy
  • Temperature: 39.0°F / 3.9°CWarmer 1.4°F than last hour.
  • Dew Point: 33.1°FIncreased 0.7°Fsince last hour.
  • Relative Humidity: 79%Decreased 2.0% since last hour.
  • Wind: Calm, 10-min avg: Calm, gust: None
  • Barometer: 30.45 in Steady
  • Visibility: 10 miles
  • Rain Today: 0.00 in
  •   

Regional Weather Roundup
for Boston, MA

        
000
ASUS41 KBOX 010910
RWRBOX

REGIONAL WEATHER ROUNDUP
NATIONAL WEATHER SERVICE BOSTON/NORTON MA
400 AM EST FRI MAR 01 2024

NOTE:  "FAIR" INDICATES FEW OR NO CLOUDS BELOW 12,000 FEET WITH NO 
SIGNIFICANT WEATHER AND/OR OBSTRUCTIONS TO VISIBILITY.

MAZALL-011000-
EASTERN MASSACHUSETTS
  
CITY           SKY/WX    TMP DP  RH WIND       PRES   REMARKS
BOSTON         PTCLDY    23   2  40 N10       30.49R WCI  12          
BEVERLY        CLEAR     19   3  49 N5        30.48R WCI  12          
LAWRENCE       CLEAR     21   1  41 NW8       30.49R WCI  11          
BEDFORD        MOCLDY    21   5  50 N6        30.48R WCI  13          
NORWOOD        CLEAR     26  10  50 NW6       30.49R WCI  19          
MARSHFIELD     CLOUDY    21  10  63 CALM      30.49R                  
PLYMOUTH       CLEAR     24  11  57 W6        30.47R WCI  17          
TAUNTON        CLEAR     25  11  55 W5        30.48R WCI  19          
NEW BEDFORD    CLEAR     25  12  58 W7        30.49R WCI  17          
$$

MAZALL-011000-
CAPE COD AND THE ISLANDS
  
CITY           SKY/WX    TMP DP  RH WIND       PRES   REMARKS
FALMOUTH       CLEAR     25  10  54 NW12      30.48R WCI  14          
HYANNIS        CLEAR     24  10  55 W8        30.48R WCI  15          
CHATHAM        CLEAR     27  10  49 VRB7      30.48R WCI  19          
PROVINCETOWN   PTCLDY    27  12  53 NW17G28   30.49R WCI  14          
NANTUCKET      CLEAR     28  11  48 NW14G28   30.48R WCI  17          
MARTHAS VNYRD  CLEAR     27  10  49 NW17G25   30.49R WCI  14          
$$
 
MAZALL-011000-
CENTRAL AND WESTERN MASSACHUSETTS
  
CITY           SKY/WX    TMP DP  RH WIND       PRES   REMARKS
WORCESTER      PTCLDY    21  10  62 W6        30.41R WCI  13          
FITCHBURG      PTCLDY    22   4  46 N6        30.47R WCI  14          
ORANGE         MOCLDY    22   6  50 W7        30.46R WCI  13          
SPRINGFIELD    CLEAR     24  11  57 NW9       30.46R WCI  14          
WESTFIELD      PTCLDY    23  12  62 VRB6      30.49R WCI  16          
NORTH ADAMS    MOCLDY    22  12  65 W12       30.45R WCI  10          
PITTSFIELD     PTCLDY    18  12  77 W8        30.40R WCI   8          
$$
 
RIZALL-011000-
RHODE ISLAND
  
CITY           SKY/WX    TMP DP  RH WIND       PRES   REMARKS
PROVIDENCE     CLEAR     25  11  55 NW6       30.50R WCI  18          
NEWPORT        CLEAR     25  11  55 NW12G22   30.49R WCI  14          
BLOCK ISLAND   CLEAR     26  12  55 NW13G20   30.52R WCI  15          
SMITHFIELD     CLEAR     21  12  68 W6        30.47R WCI  13          
WESTERLY       CLEAR     25  12  58 CALM      30.51R                  
$$
 
CTZALL-011000-
CONNECTICUT
  
CITY           SKY/WX    TMP DP  RH WIND       PRES   REMARKS
BRADLEY INTL   PTCLDY    25  11  55 NW8       30.49R WCI  16          
HARTFORD       CLEAR     27  11  51 NW6       30.51R WCI  20          
PLAINVILLE     FAIR      20  17  87 CALM      30.50R                  
BRIDGEPORT     CLEAR     28  11  48 CALM      30.51R                  
DANBURY        CLEAR     27   9  46 N3        30.49R                  
GROTON         CLEAR     24  14  65 CALM      30.51R                  
NEW HAVEN      CLEAR     29  12  49 N3        30.50R                  
CHESTER        CLEAR     23  10  58 NW5       30.48R WCI  17          
MERIDEN        CLEAR     22  15  75 CALM      30.51R                  
WILLIMANTIC    CLEAR     25  10  53 VRB5      30.50R WCI  19          
OXFORD         CLEAR     22  11  62 N6        30.47R WCI  14          
$$

MEZ002-015-021-024-NHZ003-005-008-011-012-014-VTZ005-008-011000-
NORTHERN NEW ENGLAND
  
CITY           SKY/WX    TMP DP  RH WIND       PRES   REMARKS
PORTLAND ME    CLEAR     15  -3  44 NW10G20   30.46R WCI   2          
BANGOR ME      PTCLDY     8  -8  48 W14G24    30.39R WCI  -8          
CONCORD NH     CLEAR     16   4  59 W6        30.45R WCI   7          
MANCHESTER NH  PTCLDY    20   3  48 N8        30.46R WCI  10          
NASHUA NH      MOCLDY    21   4  47 W8        30.49R WCI  11          
PORTSMOUTH NH  PTCLDY    17   2  50 W5        30.47R WCI  10          
JAFFREY NH     PTCLDY    19   1  45 W7        30.40R WCI  10          
KEENE NH       PTCLDY    20   4  50 NW5       30.46R WCI  13          
BURLINGTON VT  CLOUDY    13   0  56 CALM      30.46R                  
MT. WASHINGTON NOT AVBL                                               
$$

NYZ052-076-011000-
EASTERN NEW YORK
  
CITY           SKY/WX    TMP DP  RH WIND       PRES   REMARKS
ALBANY         CLOUDY    23  13  65 W3        30.50R                  
NEW YORK CITY  PTCLDY    31  11  43 NW13      30.53R WCI  21          
$$
 
ANZALL-011000-
MARINE OBSERVATIONS
  
STATION/POSITION TIME  TEMP    WIND        PRES    VSBY  WAVE
                       AIR SEA DIR/SP/G                  HT/PER
                 (UTC) (F)     (DEG/KT/KT) (MB)    (MI)  (FT/S)
BOSTON BUOY      0850   27 40  310/ 16/ 19 1031.7R         3/ 3
BUZZARDS BAY     0800   28     310/ 25/ 28 1032.2R
NANTUCKET SOUND  0850   29 38  300/ 17/ 23 1032.0R         2/ 4
MASS BAY-STELLWA 0704   27 40  300/ 17/ 23 1030.6R  1 7/8  3/ 4
ISLE OF SHOALS   0800   21     310/ 17/ 20 1030.7R
S OF BLOCK IS    0856      41                N/A           5/ 4
$$

......................KEY.........................
  SKY/WX - SKY CONDITION/PRESENT WEATHER
  TMP    - TEMPERATURE IN FAHRENHEIT
  DWPT   - DEWPOINT IN FAHRENHEIT
  RH     - RELATIVE HUMIDITY IN PERCENT
  WIND   - DIRECTION AND SPEED IN MPH
  PRES   - MEAN SEA LEVEL PRESSURE IN INCHES OF HG
  WCI    - WIND CHILL INDEX
  VSB    - VISIBILITY IN MILES
  HX     - HEAT INDEX
  TC     - TEMPERATURE IN CELSIUS
  VRB    - VARIABLE WIND DIRECTION
  N/A    - NOT AVAILABLE
  
      

Other recent Regional Weather Roundups

Sat Mar 2, 8:10am EST

Sat Mar 2, 7:10am EST

Sat Mar 2, 6:10am EST

Sat Mar 2, 5:10am EST

Sat Mar 2, 4:10am EST

Sat Mar 2, 3:10am EST

Sat Mar 2, 2:10am EST

Sat Mar 2, 1:10am EST

Sat Mar 2, 12:10am EST

Fri Mar 1, 11:10pm EST

Fri Mar 1, 10:10pm EST

Fri Mar 1, 9:10pm EST

Fri Mar 1, 8:10pm EST

Fri Mar 1, 7:10pm EST

Fri Mar 1, 6:10pm EST

Fri Mar 1, 5:10pm EST

Fri Mar 1, 4:10pm EST

Fri Mar 1, 3:10pm EST

Fri Mar 1, 2:10pm EST

Fri Mar 1, 1:10pm EST

Fri Mar 1, 12:10pm EST

Fri Mar 1, 11:10am EST

Fri Mar 1, 10:10am EST

Fri Mar 1, 9:10am EST

Fri Mar 1, 8:10am EST

Fri Mar 1, 7:10am EST

Fri Mar 1, 6:10am EST

Fri Mar 1, 5:10am EST

Fri Mar 1, 3:10am EST

Fri Mar 1, 2:10am EST

Fri Mar 1, 1:10am EST

Fri Mar 1, 12:10am EST

Thu Feb 29, 11:10pm EST

Thu Feb 29, 10:10pm EST

Thu Feb 29, 9:10pm EST

Thu Feb 29, 8:10pm EST

Thu Feb 29, 7:10pm EST

Thu Feb 29, 6:10pm EST

Thu Feb 29, 5:10pm EST

Thu Feb 29, 4:10pm EST

Thu Feb 29, 3:10pm EST

Thu Feb 29, 2:10pm EST

Thu Feb 29, 1:10pm EST

Thu Feb 29, 12:10pm EST

Thu Feb 29, 11:10am EST

Thu Feb 29, 10:10am EST

Thu Feb 29, 9:10am EST

Thu Feb 29, 8:10am EST

Thu Feb 29, 7:10am EST

Thu Feb 29, 6:10am EST

Thu Feb 29, 5:10am EST

Thu Feb 29, 4:10am EST

Thu Feb 29, 3:10am EST

Thu Feb 29, 2:10am EST

Thu Feb 29, 1:10am EST

Thu Feb 29, 12:10am EST

Wed Feb 28, 11:10pm EST

Wed Feb 28, 10:10pm EST

Wed Feb 28, 9:10pm EST

Wed Feb 28, 8:10pm EST

Wed Feb 28, 7:10pm EST

Wed Feb 28, 6:10pm EST

Wed Feb 28, 5:10pm EST

Wed Feb 28, 4:10pm EST

Wed Feb 28, 3:10pm EST

Wed Feb 28, 2:10pm EST

Wed Feb 28, 1:10pm EST

Wed Feb 28, 12:10pm EST

Wed Feb 28, 11:10am EST

Wed Feb 28, 10:10am EST

Wed Feb 28, 9:10am EST

Wed Feb 28, 8:10am EST

Wed Feb 28, 7:10am EST

Wed Feb 28, 6:10am EST

Wed Feb 28, 5:10am EST

Wed Feb 28, 4:10am EST

Wed Feb 28, 3:10am EST

Wed Feb 28, 2:10am EST

Wed Feb 28, 1:10am EST

Wed Feb 28, 12:10am EST

Tue Feb 27, 11:10pm EST

Tue Feb 27, 10:10pm EST

Tue Feb 27, 9:10pm EST

Tue Feb 27, 8:10pm EST

Tue Feb 27, 7:10pm EST

Tue Feb 27, 6:10pm EST

Tue Feb 27, 5:10pm EST

Tue Feb 27, 4:10pm EST

Tue Feb 27, 3:10pm EST

Tue Feb 27, 2:10pm EST

Tue Feb 27, 1:10pm EST

Tue Feb 27, 12:10pm EST

Tue Feb 27, 11:10am EST

Tue Feb 27, 10:10am EST

Tue Feb 27, 9:10am EST

Tue Feb 27, 8:10am EST

Tue Feb 27, 7:10am EST

Tue Feb 27, 6:10am EST

Tue Feb 27, 5:10am EST

Tue Feb 27, 4:10am EST

Tue Feb 27, 3:10am EST

Tue Feb 27, 2:10am EST

Tue Feb 27, 1:10am EST

Tue Feb 27, 12:10am EST

Mon Feb 26, 11:10pm EST

Mon Feb 26, 10:10pm EST

Mon Feb 26, 9:10pm EST

Mon Feb 26, 8:10pm EST

Mon Feb 26, 7:10pm EST

Mon Feb 26, 6:10pm EST

Mon Feb 26, 5:10pm EST

Mon Feb 26, 4:10pm EST

Mon Feb 26, 3:10pm EST

Mon Feb 26, 2:10pm EST

Mon Feb 26, 1:10pm EST

Mon Feb 26, 12:10pm EST

Mon Feb 26, 11:10am EST

Mon Feb 26, 10:10am EST

Mon Feb 26, 9:10am EST

Mon Feb 26, 8:10am EST

Mon Feb 26, 7:10am EST

Mon Feb 26, 6:10am EST

Mon Feb 26, 5:10am EST

Mon Feb 26, 4:10am EST

Mon Feb 26, 3:10am EST

Mon Feb 26, 2:10am EST

Mon Feb 26, 1:10am EST

Mon Feb 26, 12:10am EST

Sun Feb 25, 11:10pm EST

Sun Feb 25, 10:10pm EST

Sun Feb 25, 9:10pm EST

Sun Feb 25, 8:10pm EST

Sun Feb 25, 7:10pm EST

Sun Feb 25, 6:10pm EST

Sun Feb 25, 5:10pm EST

Sun Feb 25, 4:10pm EST

Sun Feb 25, 3:10pm EST

Sun Feb 25, 2:10pm EST

Sun Feb 25, 1:10pm EST

Sun Feb 25, 12:10pm EST

Sun Feb 25, 11:10am EST

Sun Feb 25, 10:10am EST

Sun Feb 25, 9:10am EST

Sun Feb 25, 8:10am EST

Sun Feb 25, 7:10am EST

Sun Feb 25, 6:10am EST

Sun Feb 25, 5:10am EST

Sun Feb 25, 4:10am EST

Sun Feb 25, 3:10am EST

Sun Feb 25, 2:10am EST

Sun Feb 25, 1:10am EST

Sun Feb 25, 12:10am EST

Sat Feb 24, 11:10pm EST

Sat Feb 24, 10:10pm EST

Sat Feb 24, 9:10pm EST

Sat Feb 24, 8:10pm EST

Sat Feb 24, 7:10pm EST

Sat Feb 24, 6:10pm EST

Sat Feb 24, 5:10pm EST

Sat Feb 24, 4:10pm EST

Sat Feb 24, 3:10pm EST

Sat Feb 24, 2:10pm EST

Sat Feb 24, 1:10pm EST

Sat Feb 24, 12:10pm EST

Sat Feb 24, 11:10am EST

Sat Feb 24, 10:10am EST

Sat Feb 24, 9:10am EST